sat.trackr.live / text

‹ back to catalog

KUIPER-00519

NORAD 68890 · 2026-095AC

PAYLOAD ACTIVE UNKNOWN

§ Identity

Operator
Country
US
Launch date
2026-04-28
Launch site
AFETR
Launch vehicle
Mass (kg)
RCS (m²)

External: N2YO · Heavens-Above · Gunter

§ Orbital elements

Epoch: 2026-05-24T23:50:43.610784Z

Period
93.59 min
Inclination
51.8834°
Eccentricity
0.0001878
Mean motion
15.38694248 rev/d
Perigee alt
448.7 km
Apogee alt
451.3 km
Semi-major
6,828.1 km
B*
6.9186e-4
RAAN
354.3449°
Arg perigee
165.4705°
Mean anomaly
194.6336°
Rev number
416

§ Raw data

KUIPER-005191 68890U 26095AC  26144.99356031  .00026570  00000+0  69186-3 0  99982 68890  51.8834 354.3449 0001878 165.4705 194.6336 15.38694248  4169

JSON: /api/v1/satellites/68890 · /tle

For live sub-satellite position, see the globe view (requires WebGL).

§ Visibility from observer

Set your observer location to see the next 7 days of passes ≥ 10°. The values pass through the URL so the page stays shareable.

No JS? Fill the form by hand. The geolocation button needs JavaScript.